Погода в Танане

Вьетнам     10°32′21″N   106°24′51″E
темп.,
°C
ветер,
м/с
пор.,
м/с
влажн.,
%
обл.,
%
осадки,
мм/ч
давл.,
гПа
погр.,
м
17 августа, ср
ср1701:00+25юз269376 0.5 1008181
04:00+24юз259488 0.0 1008136
07:00+25юз2690100 0.0 1009221
10:00+31юз4666100 0.0 10101217
13:00+31зюз4563100 0.1 10071397
16:00+30юз4666100 0.8 1006981
19:00+26юз28841 1.1 1007234
22:00+26юз29905 0.2 1009330
18 августа, чт
чт1801:00+25зюз299373 0.2 1008330
04:00+24зюз279546 0.0 1007253
07:00+26зюз268955 0.0 1009278
10:00+31з45665 0.0 10091196
13:00+31з456719 2.8 10071058
16:00+31зюз3566100 0.9 1005917
19:00+27ююз3882100 0.9 1006222
22:00+26зюз3887100 0.0 1008285
19 августа, пт
пт1901:00+25зюз2991100 0.0 1006317
04:00+25зюз2793100 0.0 1006271
07:00+26з2789100 0.0 1007295
10:00+31з466598 0.0 10081066
13:00+33з465682 0.1 10051813
16:00+29юз4876100 2.1 1004452
19:00+26зюз3987100 3.6 1005317
22:00+26зюз3891100 4.4 1007275
20 августа, сб
сб2001:00+25зюз31095100 4.4 1006408
04:00+25юз21097100 0.0 1006422
07:00+26юз31093100 0.0 1007466
10:00+30з586996 0.2 10071245
13:00+32з6862100 2.5 10041501
16:00+29зюз41075100 1.1 1003691
19:00+27зюз41181100 1.3 1005489
22:00+26зюз41186100 0.1 1007488
21 августа, вс
вс2101:00+25юз31092100 0.1 1005483
04:00+24юз2896100 1.5 1005254
07:00+26зюз31191100 1.6 1006660
10:00+30зюз5870100 0.1 10071340
13:00+31зюз5863100 0.6 10051102
16:00+30юз5971100 1.3 1004824
19:00+26юз31083100 2.2 1006351
22:00+25юз31090100 0.0 1008325